Reflectivity
-9 -20 -20 -20 -20 -20 -20 -20 -20 1 3 20 36 47 37 1 -16 -12 -1 -20 -20 -20 -20 -20 -6 -12 -20 -20 -20 -20 -20 -20
7 7 -5 -20 -20 -20 -20 -20 -20 4 -0 21 35 30 35 36 -15 30 -2 -8 -20 -19 -2 -20 -6 -9 12 -20 -17 -20 -20 -20
-20 10 -0 -20 -20 -20 -20 -20 -20 -20 -2 8 32 39 36 32 -1 13 3 21 15 4 7 -20 -19 7 -20 -20 -20 -20 -20 -20
-20 9 3 -20 -20 -20 -20 -20 -20 -20 -4 8 15 29 35 36 32 -19 -20 -17 -6 -20 -20 -20 -17 -9 -20 -20 -2 -20 -20 -20
-20 -11 -12 4 -12 -20 -20 -20 -20 -20 -3 31 46 36 28 -12 22 27 -18 -20 -20 -20 -20 -20 -20 -20 -11 -1 1 -20 -20 -20
-20 -20 -20 -18 -20 -19 -20 -20 -20 -20 -6 11 38 35 25 -20 19 28 -20 -20 -20 -20 -20 -20 -20 -20 -14 -19 -20 -20 -20 -20
-20 -20 -20 -9 -20 -20 -20 -20 -20 -20 -20 -5 16 8 9 -9 -10 13 17 -17 -20 -20 -20 -20 -20 -20 3 -20 -20 -20 -20 -20
-20 -20 -20 -20 -20 -20 -20 -20 -20 -20 -20 1 -13 -5 -20 -17 -6 -20 -20 -2 -20 -20 -20 -20 -20 -15 -6 -20 -20 -20 -20 -20
-20 -20 -20 -20 -20 -20 -20 -20 -20 -20 11 -18 -17 -20 19 -13 -4 -20 -20 18 -20 -20 -20 -20 -20 -3 -13 -20 -20 -20 -20 -20
-20 -20 -20 -4 6 -20 -20 -20 -20 -20 12 21 -8 -20 -19 -20 -11 18 7 19 -20 -20 -20 -19 -13 -2 -20 -12 -5 -20 -20 -20
-20 -20 -20 -20 5 -14 -20 -20 -20 -20 -20 14 15 5 18 21 25 12 18 23 -8 -12 -20 -20 -20 -20 -17 -20 -20 -20 -20 -20
-20 -20 -20 -16 -20 -10 -6 -20 -20 -20 -20 -20 17 12 10 14 9 4 21 18 -0 -8 -20 -20 -15 -16 -14 -20 -20 -20 13 -2
-20 -20 -20 -20 3 8 -16 -8 -19 -20 -14 -20 16 13 5 22 32 29 7 22 -6 -19 6 13 -9 8 11 14 7 -17 4 16
-20 -20 -20 -19 -20 -3 -20 -20 -13 17 0 15 14 21 23 24 17 26 29 19 -15 -6 11 -14 14 10 6 12 11 -10 8 -11
-20 -20 -20 -20 -6 12 -11 -20 -20 4 5 11 13 27 31 35 34 29 31 11 1 -20 -20 -20 -20 -20 -12 -9 -20 -20 -6 -4
-20 -20 -20 -20 13 13 -6 -20 -20 -20 -8 -20 -9 -7 2 12 21 29 22 25 25 -13 -17 -14 -20 -10 -20 -20 -9 -5 -18 -11
-20 -20 -20 -20 -19 14 -19 -20 -17 -19 6 -20 -11 15 3 20 21 16 18 24 25 19 -20 -19 -20 -20 -20 -20 -20 -20 -20 -20
-20 -20 -20 -15 -20 1 -17 -20 -20 -20 -20 -20 -9 -10 -3 -20 -4 -14 -12 7 11 -3 -19 -15 -19 -17 -15 -16 -19 -20 -20 14
-20 -20 -20 -1 -20 -20 -19 -20 -20 -20 -20 -20 -17 -20 -20 -20 -20 -20 -20 -20 -20 -20 -20 -20 -14 7 14 4 -9 -18 -20 -20
-20 -20 -20 -17 -3 -15 -20 -20 -20 -20 -20 -20 -20 -20 -20 -20 -20 -20 -20 -20 -20 -20 -20 -20 -20 9 26 28 4 13 -2 10
Wind_Speed
7 7 9 12 14 15 16 17 16 15 18 9 9 17 19 22 21 20 19 20 19 14 12 14 16 13 10 10 24 22 13 10
4 9 7 6 6 11 12 14 13 14 16 18 16 18 19 22 23 24 21 20 18 13 12 14 13 12 9 15 22 22 14 11
3 5 7 6 6 5 7 11 13 14 17 14 20 9 11 18 18 21 19 20 18 13 11 14 11 9 10 13 12 10 12 9
4 4 5 6 5 6 5 6 5 5 4 5 10 12 11 10 13 18 18 17 18 13 10 12 7 4 3 11 8 10 10 9
6 5 5 6 6 4 3 3 3 5 8 10 6 7 9 9 8 6 8 12 6 9 6 3 5 4 2 6 11 9 8 7
8 6 6 5 3 3 4 3 3 5 6 9 14 7 8 8 9 10 7 5 6 5 3 4 5 5 5 7 11 9 7 6
9 8 5 6 5 4 2 2 3 5 8 9 9 10 9 8 8 9 9 8 6 5 4 5 5 5 4 9 12 11 12 7
9 10 8 6 4 5 4 4 4 5 7 10 11 10 10 10 10 10 7 11 7 7 5 6 5 4 2 11 12 11 10 10
12 10 10 8 6 4 4 3 3 4 7 11 13 12 12 13 9 10 8 11 11 7 5 5 5 4 5 9 11 11 11 12
11 8 8 8 6 5 4 3 1 3 3 9 13 13 14 12 10 10 9 9 10 7 8 8 6 5 3 6 9 9 11 12
11 9 8 8 8 5 5 4 3 3 3 5 12 14 14 12 11 10 10 9 9 7 5 8 6 5 5 4 8 9 10 10
13 8 8 10 7 7 4 3 3 2 1 6 10 11 17 14 12 9 7 9 8 8 8 4 6 7 6 4 5 8 8 8
14 12 9 9 7 7 5 4 4 3 2 5 11 14 13 15 10 8 6 8 9 9 6 9 5 4 5 3 2 5 7 7
13 12 11 9 7 5 4 6 4 3 2 5 10 14 15 14 12 7 4 5 8 7 6 4 3 5 7 3 3 1 1 3
15 12 11 9 9 6 6 6 5 4 2 5 5 12 14 13 9 9 8 2 6 5 6 7 7 2 4 5 3 4 3 1
15 14 12 10 11 9 11 8 8 4 5 5 6 8 11 11 13 9 9 7 5 4 5 4 5 7 2 2 1 5 4 1
14 14 13 12 12 11 10 10 7 6 6 8 7 5 7 9 10 8 10 7 7 8 6 6 4 5 4 3 1 2 3 4
15 15 14 13 13 13 13 13 11 9 8 8 7 8 6 7 11 11 8 9 8 7 6 6 5 4 3 3 4 4 3 3
14 15 14 13 15 15 14 14 14 15 13 10 12 9 8 9 11 12 8 9 10 9 8 8 8 6 5 4 3 4 4 3
17 16 16 14 15 16 14 15 11 11 13 11 10 9 11 6 7 10 10 8 8 9 8 6 6 5 10 7 5 6 4 4
Wind_Direction
137 124 127 125 121 129 132 152 181 188 167 188 161 262 163 142 137 131 136 131 132 148 144 123 119 114 107 95 112 118 113 107
35 132 139 130 128 138 156 168 165 164 156 175 202 211 201 146 137 138 138 133 136 143 133 119 119 122 126 91 113 111 109 103
58 132 150 151 136 150 154 157 167 162 163 171 188 181 171 147 139 138 134 138 133 134 130 123 124 132 105 85 97 114 114 114
167 138 140 139 137 150 178 181 181 163 160 116 164 158 147 130 129 125 132 132 131 131 134 125 122 113 80 83 109 119 116 123
156 141 141 153 161 170 183 193 163 157 129 122 89 137 153 141 129 120 126 122 131 127 139 122 142 113 131 96 121 120 122 128
159 152 161 178 149 169 161 159 133 138 149 149 154 157 145 139 139 136 136 136 127 143 151 151 150 143 170 108 128 131 130 132
161 153 175 173 164 165 160 183 144 134 151 160 151 152 149 144 144 142 148 138 154 158 157 164 155 155 196 119 130 136 140 132
160 154 158 154 179 176 175 165 176 146 151 161 159 158 155 153 153 150 159 146 161 166 169 169 158 163 184 130 131 132 136 131
162 165 160 168 175 143 124 122 136 153 164 165 163 162 165 161 155 156 165 149 163 170 179 157 138 172 150 123 135 143 144 140
151 153 166 147 130 118 107 85 120 156 163 170 174 169 168 160 155 158 172 162 164 174 169 156 147 151 123 129 142 143 148 146
147 156 160 130 120 121 113 124 130 161 194 171 176 174 170 164 152 148 181 161 164 161 148 144 148 142 142 133 137 144 155 155
150 155 144 125 120 115 115 103 95 85 120 189 172 166 173 167 151 153 155 145 150 155 137 130 150 156 146 132 134 149 161 164
151 144 134 130 137 139 141 137 129 104 99 131 165 151 140 152 129 123 117 144 142 143 130 137 143 145 115 107 82 174 162 167
145 145 142 141 150 155 147 143 128 109 94 108 124 135 135 134 121 113 104 127 136 137 134 125 116 155 156 109 141 10 346 206
149 149 146 150 150 141 129 109 113 114 110 115 132 141 132 125 128 148 153 171 141 152 144 133 158 139 142 136 146 184 124 206
146 148 152 149 155 155 157 146 160 164 156 136 135 149 147 156 156 166 161 167 162 165 156 150 151 161 108 190 75 126 145 203
146 148 151 163 161 163 162 159 170 147 151 145 160 158 160 155 174 172 171 173 177 175 171 170 147 141 158 146 146 78 111 131
149 151 161 168 166 164 173 170 164 160 161 163 171 178 180 185 183 190 172 177 176 176 177 180 156 149 149 157 154 151 184 145
151 155 165 173 172 173 176 179 173 174 173 177 174 181 192 202 189 197 185 178 175 179 179 184 174 168 193 222 172 171 153 170
156 163 170 174 174 178 180 182 182 185 184 181 189 189 191 173 178 182 191 178 174 185 185 177 165 170 197 202 190 203 173 177